Regional Weather Roundup
Issued by NWS

Home | Current Version | Previous Version | Graphics & Text | Print | Product List | Glossary On
Versions: 1 2 3 4 5 6 7 8 9 10 11 12 13 14 15 16 17 18 19 20 21 22 23 24 25 26 27 28 29 30 31 32 33 34 35 36 37 38 39 40 41 42 43 44 45 46 47 48 49 50
000
ASUS45 KBOU 051507
RWRCO

WEATHER ROUNDUP FOR COLORADO
NATIONAL WEATHER SERVICE DENVER/BOULDER CO
800 AM MST THU MAR 05 2015

NOTE: "FAIR" INDICATES FEW OR NO CLOUDS BELOW 12000 FEET WITH NO
SIGNIFICANT WEATHER AND/OR OBSTRUCTIONS TO VISIBILITY.

COZ001>005-013-030-031-051600-
...NORTHWEST COLORADO...

CITY           SKY/WX    TMP DP  RH WIND       PRES   REMARKS
CRAIG          MOSUNNY    8   2  76 CALM      30.38R
HAYDEN         MOSUNNY    9   0  66 SE8       30.36R WCI  -4
MEEKER         MOSUNNY   15   4  61 CALM      30.38R
MOUNT WERNER   NOT AVBL
STEAMBOAT SPGS MOSUNNY    3  -3  78 CALM      30.36R
WALDEN         MOSUNNY    9  -2  61 S14       30.25R WCI  -8
$$

COZ006>008-011-051600-
...WEST CENTRAL VALLEYS...

CITY           SKY/WX    TMP DP  RH WIND       PRES   REMARKS
GRAND JUNCTION SUNNY     26   9  48 E12       30.42R WCI  16
MONTROSE       MOSUNNY   20   8  60 SE8       30.45R WCI  10
EAGLE          MOSUNNY    9   3  78 CALM      30.47R
RIFLE          MOSUNNY   19   8  62 CALM      30.44R
DELTA          MOSUNNY   24   9  51 NE8       30.46R WCI  16
NUCLA          MOSUNNY   23  10  58 E10       30.44R WCI  12
$$

COZ017>023-064>068-051600-
...SOUTHWEST COLORADO...

CITY           SKY/WX    TMP DP  RH WIND       PRES   REMARKS
DURANGO        MOSUNNY   15   3  59 CALM      30.37R
CORTEZ         SUNNY     20  10  65 E3        30.39R
PAGOSA SPRINGS MOSUNNY    9  -1  63 CALM      30.35R
TELLURIDE      MOSUNNY   11  -3  53 SE6       30.34R WCI   2
WOLF CREEK PAS   N/A      9   1  72 SW10      30.28R WCI  -6
$$

COZ009-010-012-014-032>034-037-058>063-051600-
...CENTRAL COLORADO...

CITY           SKY/WX    TMP DP  RH WIND       PRES   REMARKS
ASPEN          SUNNY     10  -1  61 SW5       30.34R WCI   2
BUENA VISTA    SUNNY     10  -1  61 CALM      30.28R
COPPER MTN     NOT AVBL
BERTHOUD PASS  FAIR      -4  -9  77 NW33G41   30.10R WCI -32
COTTONWOOD PAS SUNNY     18 -15  23 SE10      30.21R WCI   6
GUNNISON       MOSUNNY   -6  -6 100 E3        30.45R
KREMMLING      MOSUNNY    1  -6  71 CALM      30.41R
LEADVILLE      MOSUNNY    6  -7  54 N9        30.26R WCI  -8
SALIDA         SUNNY     21  -3  36 N12       30.36R WCI   9
SUNLIGHT       MOSUNNY   10   7  85 CALM        N/A
WILKERSON PASS MOSUNNY   12  -6  44 NW6G23    30.17R WCI   3
$$

COZ069>075-051600-
...SAN LUIS VALLEY/SANGRE DE CRISTO MOUNTAINS...

CITY           SKY/WX    TMP DP  RH WIND       PRES   REMARKS
ALAMOSA        MOSUNNY   13   1  59 W7        30.35R WCI   3
LA VETA PASS   MOSUNNY    9  -6  52 MISG      30.18R
SAGUACHE       MOSUNNY   18   3  53 NW12      30.34R WCI   5
$$

COZ035-036-038>040-051600-
...NORTHERN COLORADO FRONT RANGE...

CITY           SKY/WX    TMP DP  RH WIND       PRES   REMARKS
DENVER INTL AP MOSUNNY   19   3  49 SW10      30.17R WCI   7
DMNS CITY PARK   N/A     24   2  39 S6G12     30.18S WCI  16
AURORA         MOSUNNY   21   2  43 S10       30.17R WCI  10
FRONT RANGE AP MOSUNNY   23   3  42 S15       30.17  WCI  10
ERIE MUNI ARPT MOSUNNY   10   6  84 CALM      30.20R
BOULDER MUN AP MOSUNNY   14   9  79 CALM      30.18R
CENTENNIAL     MOSUNNY   24   2  38 S10       30.17R WCI  14
BROOMFIELD     MOSUNNY   12   7  79 CALM      30.16R
FORT COLLINS   MOSUNNY    9   7  92 CALM      30.21R
LONGMONT       MOSUNNY   15   6  66 CALM      30.22R
$$

COZ041-046-047-076>085-087-088-051600-
...PIKES PEAK/PALMER DIVIDE AND SOUTHERN FOOTHILLS...

CITY           SKY/WX    TMP DP  RH WIND       PRES   REMARKS
COLO. SPRINGS  MOSUNNY   14  -1  51 N7        30.21R WCI   4
A. F. ACADEMY  MOSUNNY    7  -2  65 N7        30.19R WCI  -4
ELLICOTT       NOT AVBL
FALCON         MOSUNNY   19  -6  33 W6        30.20R WCI  11
FORT CARSON    MOSUNNY    6   3  86 W7        30.21R WCI  -6
LIMON          MOSUNNY    2  -5  72 N7        30.23R WCI -11
MONUMENT HILL  MOSUNNY   19  -2  38 SW12      30.15R WCI   7
TRINIDAD       MOSUNNY   14   7  73 W12       30.27R WCI   0
$$

COZ042>045-048>051-090-091-051600-
...NORTHEAST COLORADO...

CITY           SKY/WX    TMP DP  RH WIND       PRES   REMARKS
GREELEY ARPT   MOSUNNY   10   1  67 CALM      30.21R
AKRON          SUNNY     23   9  55 SW7       30.22R WCI  15
BURLINGTON     SUNNY     23  12  62 SW12      30.28R WCI  12
WRAY           SUNNY     20  12  69 SW7       30.28R WCI  12
STERLING       SUNNY     14  10  85 SW9       30.25R WCI   2
HOLYOKE        NOT AVBL
FORT MORGAN    SUNNY     13   7  76 W5        30.24R WCI   6
$$

COZ086-089-092>099-051600-
...SOUTHEAST COLORADO...

CITY           SKY/WX    TMP DP  RH WIND       PRES   REMARKS
PUEBLO         MOSUNNY   10   5  80 W5        30.29R WCI   2
LA JUNTA       SUNNY     16  10  77 W8        30.33R WCI   5
LAMAR          SUNNY     19  13  77 W13       30.35R WCI   6
SPRINGFIELD      N/A     21  15  78 W6        30.33R WCI  13
$$



USA.gov is the U.S. government's official web portal to all federal, state and local government web resources and services.